timestamp,surface_pressure_avg,surface_temp_avg,battery_voltage,lat,long
2021-07-09 00:09:01+00:00,343.9496,13.63,13.21,47.84626,-54.09684
2021-07-09 00:19:01+00:00,337.8463,13.6,12.81,47.84626,-54.09684
2021-07-09 00:29:01+00:00,332.7247,13.6,12.81,47.84626,-54.09684
2021-07-09 00:39:01+00:00,328.8463,13.62,12.81,47.84626,-54.09684
2021-07-09 00:49:01+00:00,322.2013,13.63,12.81,47.84626,-54.09684
2021-07-09 00:59:01+00:00,317.3597,13.61,12.81,47.84626,-54.09684
2021-07-09 01:09:01+00:00,314.6813,13.6,12.81,47.84626,-54.09684
2021-07-09 01:19:01+00:00,312.0214,13.6,12.73,47.84626,-54.09684
2021-07-09 01:29:01+00:00,307.2513,13.6,12.73,47.84626,-54.09684
2021-07-09 01:39:01+00:00,302.1047,13.6,12.73,47.84626,-54.09684
2021-07-09 01:49:01+00:00,295.3248,13.6,12.73,47.84626,-54.09684
2021-07-09 01:59:01+00:00,286.5881,13.6,12.73,47.84626,-54.09684
2021-07-09 02:09:01+00:00,277.1763,13.6,12.73,47.84626,-54.09684
2021-07-09 02:19:00+00:00,271.3197,13.6,12.73,47.84626,-54.09684
2021-07-09 02:29:00+00:00,264.8297,13.6,12.73,47.84626,-54.09684
2021-07-09 02:39:00+00:00,257.5714,13.6,12.73,47.84626,-54.09684
2021-07-09 02:49:00+00:00,251.6297,13.6,12.73,47.84626,-54.09684
2021-07-09 02:59:00+00:00,246.5748,13.6,12.73,47.84626,-54.09684
2021-07-09 03:09:00+00:00,240.6548,13.61,12.73,47.84626,-54.09684
2021-07-09 03:19:00+00:00,234.5531,13.6,12.73,47.84626,-54.09684
2021-07-09 03:29:00+00:00,228.3781,13.6,12.73,47.84626,-54.09684
2021-07-09 03:39:00+00:00,220.7814,13.69,12.73,47.84626,-54.09684
2021-07-09 03:49:00+00:00,214.1064,13.7,12.73,47.84626,-54.09684
2021-07-09 03:59:00+00:00,210.7514,13.6,12.73,47.84626,-54.09684
2021-07-09 04:09:00+00:00,208.7081,13.6,12.73,47.84626,-54.09684
2021-07-09 04:19:01+00:00,204.6415,13.6,12.73,47.84626,-54.09684
2021-07-09 04:29:01+00:00,203.0598,13.6,12.73,47.84626,-54.09684
2021-07-09 04:39:01+00:00,201.5031,13.55,12.73,47.84626,-54.09684
2021-07-09 04:49:01+00:00,198.1881,13.5,12.73,47.84626,-54.09684
2021-07-09 04:59:01+00:00,196.7281,13.5,12.73,47.84626,-54.09684
2021-07-09 05:09:01+00:00,198.7765,13.4,12.73,47.84626,-54.09684
2021-07-09 05:19:01+00:00,196.4564,13.43,12.73,47.84626,-54.09684
2021-07-09 05:29:01+00:00,192.8881,13.5,12.73,47.84626,-54.09684
2021-07-09 05:39:01+00:00,194.1998,13.5,12.73,47.84626,-54.09684
2021-07-09 05:49:01+00:00,195.8148,13.4,12.73,47.84626,-54.09684
2021-07-09 05:59:01+00:00,194.5715,13.4,12.73,47.84626,-54.09684
2021-07-09 06:09:01+00:00,195.8447,13.4,12.73,47.84626,-54.09684
2021-07-09 06:19:01+00:00,201.0514,13.4,12.65,47.84626,-54.09684
2021-07-09 06:29:01+00:00,204.7014,13.43,12.65,47.84626,-54.09684
2021-07-09 06:39:01+00:00,204.8364,13.48,12.65,47.84626,-54.09684
2021-07-09 06:49:01+00:00,206.1998,13.49,12.65,47.84626,-54.09684
2021-07-09 06:59:01+00:00,210.2881,13.4,12.65,47.84626,-54.09684
2021-07-09 07:09:01+00:00,212.1848,13.4,12.65,47.84626,-54.09684
2021-07-09 07:19:01+00:00,214.4464,13.46,12.65,47.84626,-54.09684
2021-07-09 07:29:01+00:00,218.1515,13.49,12.65,47.84626,-54.09684
2021-07-09 07:39:01+00:00,223.5147,13.4,12.65,47.84626,-54.09684
2021-07-09 07:49:01+00:00,228.1364,13.36,12.65,47.84626,-54.09684
2021-07-09 07:59:01+00:00,232.0648,13.4,12.65,47.84626,-54.09684
2021-07-09 08:09:01+00:00,236.8914,13.3,12.65,47.84626,-54.09684
2021-07-09 08:19:00+00:00,243.2064,13.27,12.65,47.84626,-54.09684
2021-07-09 08:29:00+00:00,248.8881,13.29,12.65,47.84626,-54.09684
2021-07-09 08:39:00+00:00,252.8831,13.29,12.65,47.84626,-54.09684
2021-07-09 08:49:00+00:00,256.9231,13.3,12.65,47.84626,-54.09684
2021-07-09 08:59:00+00:00,260.1547,13.3,12.65,47.84626,-54.09684
2021-07-09 09:09:00+00:00,262.7114,13.29,12.65,47.84626,-54.09684
2021-07-09 09:19:01+00:00,268.5331,13.2,12.73,47.84626,-54.09684
2021-07-09 09:29:01+00:00,275.7147,13.19,12.73,47.84626,-54.09684
2021-07-09 09:39:01+00:00,279.4348,13.1,12.73,47.84626,-54.09684
2021-07-09 09:49:01+00:00,280.7081,13.1,12.73,47.84626,-54.09684
2021-07-09 09:59:01+00:00,286.5748,13.0,12.73,47.84626,-54.09684
2021-07-09 10:09:01+00:00,291.468,12.89,12.73,47.84626,-54.09684
2021-07-09 10:19:01+00:00,292.3846,12.83,12.97,47.84626,-54.09684
2021-07-09 10:29:01+00:00,294.298,12.8,12.97,47.84626,-54.09684
2021-07-09 10:39:01+00:00,300.52299999999997,12.7,12.97,47.84626,-54.09684
2021-07-09 10:49:01+00:00,302.4963,12.62,12.97,47.84626,-54.09684
2021-07-09 10:59:01+00:00,301.4413,12.7,12.97,47.84626,-54.09684
2021-07-09 11:09:01+00:00,305.8696,12.69,12.97,47.84626,-54.09684
2021-07-09 11:19:01+00:00,310.9514,12.7,13.6,47.84626,-54.09684
2021-07-09 11:29:01+00:00,307.403,12.7,13.6,47.84626,-54.09684
2021-07-09 11:39:01+00:00,305.303,12.75,13.6,47.84626,-54.09684
2021-07-09 11:49:01+00:00,308.0396,12.76,13.6,47.84626,-54.09684
2021-07-09 11:59:01+00:00,308.123,12.77,13.6,47.84626,-54.09684
2021-07-09 12:09:01+00:00,300.148,12.8,13.6,47.84626,-54.09684
2021-07-09 12:19:01+00:00,293.123,12.9,14.32,47.84626,-54.09684
2021-07-09 12:29:01+00:00,293.2413,12.99,14.32,47.84626,-54.09684
2021-07-09 12:39:01+00:00,292.3031,13.02,14.32,47.84626,-54.09684
2021-07-09 12:49:01+00:00,286.45799999999997,13.1,14.32,47.84626,-54.09684
2021-07-09 12:59:01+00:00,283.2663,13.1,14.32,47.84626,-54.09684
2021-07-09 13:09:01+00:00,282.608,13.14,14.32,47.84626,-54.09684
2021-07-09 13:19:01+00:00,276.6281,13.2,14.48,47.84626,-54.09684
2021-07-09 13:29:01+00:00,270.3497,13.2,14.48,47.84626,-54.09684
2021-07-09 13:39:01+00:00,270.3481,13.2,14.48,47.84626,-54.09684
2021-07-09 13:49:01+00:00,267.1164,13.2,14.48,47.84626,-54.09684
2021-07-09 13:59:01+00:00,255.5698,13.24,14.48,47.84626,-54.09684
2021-07-09 14:09:01+00:00,248.5914,13.3,14.48,47.84626,-54.09684
2021-07-09 14:19:01+00:00,248.4014,13.25,14.4,47.84626,-54.09684
2021-07-09 14:29:01+00:00,242.1681,13.22,14.4,47.84626,-54.09684
2021-07-09 14:39:01+00:00,231.0881,13.3,14.4,47.84626,-54.09684
2021-07-09 14:49:01+00:00,228.5014,13.33,14.4,47.84626,-54.09684
2021-07-09 14:59:01+00:00,227.9731,13.33,14.4,47.84626,-54.09684
2021-07-09 15:09:01+00:00,219.3881,13.36,14.4,47.84626,-54.09684
2021-07-09 15:19:01+00:00,209.2214,13.4,14.32,47.84626,-54.09684
2021-07-09 15:29:01+00:00,202.9981,13.4,14.32,47.84626,-54.09684
2021-07-09 15:39:01+00:00,196.5915,13.4,14.32,47.84626,-54.09684
2021-07-09 15:49:01+00:00,191.2681,13.4,14.32,47.84626,-54.09684
2021-07-09 15:59:01+00:00,188.2931,13.4,14.32,47.84626,-54.09684
2021-07-09 16:09:01+00:00,186.6081,13.4,14.32,47.84626,-54.09684
2021-07-09 16:19:01+00:00,183.1115,13.4,14.24,47.84626,-54.09684
2021-07-09 16:29:01+00:00,179.1665,13.45,14.24,47.84626,-54.09684
2021-07-09 16:39:01+00:00,180.6865,13.4,14.24,47.84626,-54.09684
2021-07-09 16:49:01+00:00,183.5514,13.4,14.24,47.84626,-54.09684
2021-07-09 16:59:01+00:00,183.0498,13.4,14.24,47.84626,-54.09684
2021-07-09 17:09:01+00:00,183.3715,13.4,14.24,47.84626,-54.09684
2021-07-09 17:19:01+00:00,181.9198,13.4,14.08,47.84626,-54.09684
2021-07-09 17:29:01+00:00,179.1998,13.4,14.08,47.84626,-54.09684
2021-07-09 17:39:01+00:00,184.0848,13.35,14.08,47.84626,-54.09684
2021-07-09 17:49:01+00:00,190.3865,13.3,14.08,47.84626,-54.09684
2021-07-09 17:59:01+00:00,190.1864,13.3,14.08,47.84626,-54.09684
2021-07-09 18:09:01+00:00,189.1015,13.28,14.08,47.84626,-54.09684
2021-07-09 18:19:01+00:00,193.3181,13.2,13.92,47.84626,-54.09684
2021-07-09 18:29:01+00:00,199.6298,13.1,13.92,47.84626,-54.09684
2021-07-09 18:39:01+00:00,202.2348,13.1,13.92,47.84626,-54.09684
2021-07-09 18:49:01+00:00,205.2131,13.1,13.92,47.84626,-54.09684
2021-07-09 18:59:01+00:00,209.9182,13.0,13.92,47.84626,-54.09684
2021-07-09 19:09:01+00:00,213.0497,12.8,13.92,47.84626,-54.09684
2021-07-09 19:19:01+00:00,216.7031,12.79,13.68,47.84626,-54.09684
2021-07-09 19:29:01+00:00,220.9881,12.7,13.68,47.84626,-54.09684
2021-07-09 19:39:01+00:00,227.2914,12.69,13.68,47.84626,-54.09684
2021-07-09 19:49:01+00:00,232.1947,12.65,13.68,47.84626,-54.09684
2021-07-09 19:59:01+00:00,236.6814,12.63,13.68,47.84626,-54.09684
2021-07-09 20:09:01+00:00,242.8264,12.65,13.68,47.84626,-54.09684
2021-07-09 20:19:01+00:00,248.8731,12.64,13.37,47.84626,-54.09684
2021-07-09 20:29:01+00:00,253.0481,12.63,13.37,47.84626,-54.09684
2021-07-09 20:39:01+00:00,256.7581,12.66,13.37,47.84626,-54.09684
2021-07-09 20:49:01+00:00,263.6014,12.69,13.37,47.84626,-54.09684
2021-07-09 20:59:01+00:00,271.1647,12.7,13.37,47.84626,-54.09684
2021-07-09 21:09:01+00:00,275.1614,12.7,13.37,47.84626,-54.09684
2021-07-09 21:19:01+00:00,280.2581,12.79,13.53,47.84626,-54.09684
2021-07-09 21:29:01+00:00,288.8898,12.8,13.53,47.84626,-54.09684
2021-07-09 21:39:01+00:00,295.5147,12.8,13.53,47.84626,-54.09684
2021-07-09 21:49:01+00:00,298.9763,12.8,13.53,47.84626,-54.09684
2021-07-09 21:59:01+00:00,306.8364,12.86,13.53,47.84626,-54.09684
2021-07-09 22:09:01+00:00,316.108,12.89,13.53,47.84626,-54.09684
2021-07-09 22:19:01+00:00,317.483,12.89,13.29,47.84626,-54.09684
2021-07-09 22:29:01+00:00,316.0364,12.9,13.29,47.84626,-54.09684
2021-07-09 22:39:01+00:00,321.988,12.9,13.29,47.84626,-54.09684
2021-07-09 22:49:01+00:00,328.6679,12.9,13.29,47.84626,-54.09684
2021-07-09 22:59:01+00:00,326.973,12.9,13.29,47.84626,-54.09684
2021-07-09 23:09:01+00:00,327.6929,12.9,13.29,47.84626,-54.09684
2021-07-09 23:19:01+00:00,338.2397,12.9,13.05,47.84626,-54.09684
2021-07-09 23:29:01+00:00,340.4479,12.9,13.05,47.84626,-54.09684
2021-07-09 23:39:01+00:00,338.098,12.9,13.05,47.84626,-54.09684
2021-07-09 23:49:01+00:00,341.2696,12.98,13.05,47.84626,-54.09684
2021-07-09 23:59:01+00:00,346.43800000000016,13.0,13.05,47.84626,-54.09684
